sat.trackr.live / text

‹ back to catalog

DISKSAT A

NORAD 67222 · 2025-305D

PAYLOAD ACTIVE UNKNOWN

§ Identity

Operator
Country
US
Launch date
2025-12-18
Launch site
WLPIS
Launch vehicle
Mass (kg)
RCS (m²)

External: N2YO · Heavens-Above · Gunter

§ Orbital elements

Epoch: 2026-05-24T21:34:10.887168Z

Period
95.42 min
Inclination
45.0019°
Eccentricity
0.0004383
Mean motion
15.09180614 rev/d
Perigee alt
535.7 km
Apogee alt
541.7 km
Semi-major
6,916.8 km
B*
2.1194e-4
RAAN
206.8165°
Arg perigee
20.4771°
Mean anomaly
339.6280°
Rev number
2,379

§ Raw data

DISKSAT A1 67222U 25305D   26144.89873712  .00003176  00000+0  21194-3 0  99922 67222  45.0019 206.8165 0004383  20.4771 339.6280 15.09180614 23794

JSON: /api/v1/satellites/67222 · /tle

For live sub-satellite position, see the globe view (requires WebGL).

§ Visibility from observer

Set your observer location to see the next 7 days of passes ≥ 10°. The values pass through the URL so the page stays shareable.

No JS? Fill the form by hand. The geolocation button needs JavaScript.